Regional Weather Roundup
Issued by NWS Midland/Odessa, TX

Skip options and go directly to product.
Home | Oldest Version | Next Version | Current Version | All | Text Only | Save Text | Print | Product List | Glossary On

Skip product version selection by date and time.   
752
ASUS44 KMAF 281901
RWRMAF
MIDLAND AREA WEATHER ROUNDUP
NATIONAL WEATHER SERVICE MIDLAND TX
200 PM CDT SAT MAR 28 2015

...IN SOUTHWEST TEXAS AND SOUTHEAST NEW MEXICO...

CITY           SKY/WX    TMP DP  RH WIND       PRES   REMARKS
ALPINE         SUNNY     79  29  16 W12       30.23F
ANDREWS        FAIR      82  32  16 W5        30.06F
ARTESIA        SUNNY     81  32  17 N9        30.09F
BIG SPRING     SUNNY     85  34  16 SW14      30.05F
CARLSBAD       SUNNY     87  27  11 N13       30.05F
DRYDEN           N/A     84  39  20 S12G20    30.05F
FORT STOCKTON  SUNNY     86  28  12 NW8       30.06F
GUAD PASS      SUNNY     79  24  13 SW18      30.22F
HOBBS          SUNNY     84  27  12 W16       30.07F
MARFA          SUNNY     79  27  14 W16       30.21F
MIDLAND AIRPK  SUNNY     82  37  20 SW9       30.05F
MIDLAND INTL   SUNNY     83  38  20 SW10      30.04F
ODESSA         SUNNY     84  27  12 W12       30.05F
PECOS          SUNNY     86  32  14 W10       30.03F
PRESIDIO       FAIR      79  32  18 MISG      30.13F
SEMINOLE       SUNNY     83  31  15 NW10G16   30.04F
SNYDER         SUNNY     81  38  21 SW16G23   30.01F
WINK           SUNNY     84  29  13 W7        30.03F
$$
...OTHER STATIONS IN TEXAS...

CITY           SKY/WX    TMP DP  RH WIND       PRES   REMARKS
ABILENE        SUNNY     81  44  27 SW15      30.01F
AMARILLO       SUNNY     81  27  14 NE5       30.05F
AUSTIN         SUNNY     79  46  31 S20G25    30.08F
BROWNSVILLE    SUNNY     79  56  45 S18G24    30.17F
CORPUS CHRISTI SUNNY     78  52  40 S18       30.13F
DALLAS FTW     MOSUNNY   75  48  38 S12       30.02F
DEL RIO        SUNNY     82  44  26 SE17G24   30.05F
EL PASO        SUNNY     80  17   9 CALM      30.15F
HOUSTON INT    SUNNY     80  43  26 SW12G20   30.12F
LUBBOCK        MOSUNNY   82  30  15 CALM      30.02F
SAN ANGELO     SUNNY     84  41  21 SW17G24   30.02F
SAN ANTONIO    SUNNY     78  40  25 SW10G20   30.12F
WACO           SUNNY     80  49  33 S12       30.04F
WICHITA FALLS  NOT AVBL
$$
...OTHER LOCATIONS IN NEW MEXICO...

CITY           SKY/WX    TMP DP  RH WIND       PRES   REMARKS
ALAMAGORDO     MOSUNNY   77  18  10 N5        30.17F
ALBUQUERQUE    SUNNY     72  21  14 N3        30.22F
CANNON AFB     NOT AVBL
CLOVIS         SUNNY     81  27  13 NW6G17    30.08F
HOLLOMAN AFB   NOT AVBL
ROSWELL        SUNNY     85  25  11 N9G18     30.07F
RUIDOSO        SUNNY     68  16  13 NW13G26   30.30F
SANTA FE       SUNNY     69  21  16 W10       30.23F
TRUTH OR CONSE SUNNY     79  15   9 NW8       30.17F
TUCUMCARI      SUNNY     80  19  10 VRB5      30.07F
$$

USA.gov is the U.S. government's official web portal to all federal, state and local government web resources and services.